Regional Weather Roundup
Issued by NWS

Home | Current Version | Previous Version | Text Only | Print | Product List | Glossary Off
Versions: 1 2 3 4 5 6 7 8 9 10 11 12 13 14 15 16 17 18 19 20 21 22 23 24 25 26 27 28 29 30 31 32 33 34 35 36 37 38 39 40 41 42 43 44 45 46 47 48 49 50

000
ASUS43 KLOT 251403
RWRIL

ILLINOIS REGIONAL WEATHER ROUNDUP
NATIONAL WEATHER SERVICE CHICAGO/ROMEOVILLE IL
900 AM CDT TUE JUL 25 2017

NOTE: "FAIR" INDICATES FEW OR NO CLOUDS BELOW 12,000 FEET WITH NO
SIGNIFICANT WEATHER AND/OR OBSTRUCTIONS TO VISIBILITY.

* THESE STATIONS ARE NOT UNDER NWS QUALITY CONTROL. THEY ALSO MAY NOT
  REPORT WEATHER SUCH AS PRECIPITATION OR FOG.

ILZ001-002-007-009-015-016-024-251500-
NORTHWEST ILLINOIS

CITY           SKY/WX    TMP DP  RH WIND       PRES   REMARKS
MOLINE         SUNNY     70  63  78 SE6       30.16R
STERLING*      SUNNY     68  63  84 SE7       30.18R
SAVANNA*       SUNNY     68  62  83 SE9       30.17S
$$

ILZ003-004-008-010-011-017-018-251500-
NORTH CENTRAL ILLINOIS

CITY           SKY/WX    TMP DP  RH WIND       PRES   REMARKS
ROCKFORD       MOSUNNY   71  61  70 S12       30.20R
FREEPORT*      SUNNY     65  63  93 SE7       30.21R
ROCHELLE*      SUNNY     67  61  79 S8        30.20S
DE KALB*       SUNNY     69  62  78 S12       30.21S
PERU*          SUNNY    N/A N/A N/A SE12      30.19R
$$

ILZ005-006-012>014-019>023-251500-
NORTHEAST ILLINOIS

CITY           SKY/WX    TMP DP  RH WIND       PRES   REMARKS
CHICAGO-OHARE  MOSUNNY   72  58  61 S10       30.20R
CHICAGO-MIDWAY MOSUNNY   73  57  57 SE12      30.20R
AURORA         MOSUNNY   70  61  73 S10       30.20S
LANSING*       SUNNY     70  57  63 E8        30.21S
JOLIET*        SUNNY     71  62  71 SE10      30.21S
WAUKEGAN       SUNNY     72  62  71 SE13      30.19S
DUPAGE AIRPORT SUNNY     70  61  73 S10G16    30.20R
WHEELING       SUNNY     71  61  70 SE10      30.22R
MORRIS*        SUNNY     69  62  77 SE9       30.19S
ROMEOVILLE*    SUNNY     70  58  65 S13       30.21S
NORTHERLY ISL    N/A     73  60  63 SE2         N/A
$$

LMZ740>746-251500-
SOUTHERN LAKE MICHIGAN

STATION/POSITION SKY/WX   TEMP    WIND        PRES    VSBY  WAVE
                          AIR SEA DIR/SP/G                  HT/PER
                          (F)     (DEG/KT/KT) (MB)    (MI)  (FT/S)
SOUTHERN BUOY              70 71  160/ 10/ 12 1022.6          1/ 5
WILMETTE HARBOR            70 72  150/ 12/ 14   N/A           2/ 4
HARRISON CRIB              71     150/ 14/ 16   N/A
BURNHAM HARBOR             73                   N/A
CALUMET HARBOR             70     130/  8/ 10 1022.5R
BURNS HARBOR               71     130/  3/  8 1023.7R
MICHIGAN CITY              69     120/  8/ 12   N/A
MICHIGAN CITY 6N           69 74  150/ 10/ 14   N/A           2/ 5
ST. JOSEPH                 68 71  190/  8/ 10 1023.6R         1/ 5
$$

ILZ025>027-034>036-040-047-049-050-058-095>099-251500-
WEST-CENTRAL ILLINOIS

CITY           SKY/WX    TMP DP  RH WIND       PRES   REMARKS
QUINCY         SUNNY     73  65  75 SE8       30.13R
GALESBURG*     SUNNY     69  64  84 E7        30.17S
MACOMB*        SUNNY     69  66  92 SE7       30.17S
JACKSONVILLE*  MOSUNNY   72  65  79 E9        30.14S
PITTSFIELD*    SUNNY     73  67  80 E3        30.14S
$$

ILZ028>032-037-038-041>044-048-051>054-059>061-251500-
CENTRAL ILLINOIS

CITY           SKY/WX    TMP DP  RH WIND       PRES   REMARKS
PONTIAC        SUNNY     69  64  85 SE9       30.20S
BLOOMINGTON    SUNNY     70  61  73 SE13      30.19S
DECATUR        SUNNY     71  63  75 SE12      30.17R
PEORIA         SUNNY     71  63  75 SE7       30.16S
LACON*         SUNNY     69  61  75 SE12      30.17S
LINCOLN*       SUNNY     72  65  78 E7        30.17S
SPRINGFIELD    SUNNY     73  65  75 E5        30.15S
TAYLORVILLE    PTSUNNY   72  65  79 E7        30.15R
$$

ILZ033-039-045-046-055>057-062-063-251500-
EAST-CENTRAL ILLINOIS

CITY           SKY/WX    TMP DP  RH WIND       PRES   REMARKS
CHAMPAIGN      SUNNY     71  62  73 E10       30.19R
RANTOUL*       SUNNY     71  63  73 SE7       30.19S
MATTOON        SUNNY     72  64  76 SE10      30.15S
PARIS*         SUNNY     70  64  82 E8        30.18F
$$

ILZ079-100>102-251500-
SOUTHWEST ILLINOIS

CITY           SKY/WX    TMP DP  RH WIND       PRES   REMARKS
ALTON          PTSUNNY   73  68  83 E9        30.12R
BELLEVILLE     SUNNY     77  69  76 E7        30.12R
CAHOKIA*       SUNNY     80  67  64 E8        30.10S HX  82
SPARTA*        CLOUDY    76  69  79 E9        30.11S
$$

ILZ064>066-069>071-074>076-080>082-084>086-088>090-092>094-251500-
SOUTH-CENTRAL ILLINOIS

CITY           SKY/WX    TMP DP  RH WIND       PRES   REMARKS
CARBONDALE     MOSUNNY   78  72  81 E6        30.09S HX  80
CAIRO*         SUNNY     81  76  85 SE3       30.07S HX  87
EFFINGHAM*     SUNNY     73  67  82 E8        30.16S
MARION         MOSUNNY   79  73  83 E9        30.10F HX  82
CENTRALIA*     PTSUNNY   75  70  83 E5        30.11S
SALEM*         MOSUNNY   76  67  73 E6        30.13S
METROPOLIS*    SUNNY     79  73  81 E5        30.09F HX  83
$$

ILZ067-068-072-073-078-083-087-091-251500-
SOUTHEAST ILLINOIS

CITY           SKY/WX    TMP DP  RH WIND       PRES   REMARKS
LAWRENCEVILLE  SUNNY     73  65  75 E9        30.16R
FLORA*         CLOUDY    74  67  77 E7        30.14S
FAIRFIELD*     CLOUDY    75  68  78 E5        30.12S
HARRISBURG*    PTSUNNY   76  71  83 E8        30.11S
ROBINSON*      SUNNY     71  64  77 E8        30.16F
CARMI*         SUNNY     75  70  83 E7        30.11F
$$

ABBREVIATIONS USED IN REMARKS
   TC - TEMPERATURE IN CELSIUS
  WCI - WIND CHILL INDEX
   HX - HEAT INDEX
  VSB - VISIBILITY
$$





USA.gov is the U.S. government's official web portal to all federal, state and local government web resources and services.